Regional Weather Roundup
Issued by NWS Northern Indiana

Home | Current Version | Previous Version | Text Only | Print | Product List | Glossary Off
Versions: 1 2 3 4 5 6 7 8 9 10 11 12 13 14 15 16 17 18 19 20 21 22 23 24 25 26 27 28 29 30 31 32 33 34 35 36 37 38 39 40 41 42 43 44 45 46 47 48 49 50

000
ASUS43 KIWX 061710
RWRIWX

KIWX WEATHER ROUNDUP
NATIONAL WEATHER SERVICE NORTHERN INDIANA
1200 PM EST SAT FEB 06 2016

NOTE: "FAIR" INDICATES FEW OR NO CLOUDS BELOW 12,000 FEET WITH NO
SIGNIFICANT WEATHER AND/OR OBSTRUCTIONS TO VISIBILITY.

* THESE STATIONS ARE NOT UNDER NWS QUALITY CONTROL. THEY ALSO MAY NOT
  REPORT WEATHER SUCH AS PRECIPITATION OR FOG.

INZ001>027-061800-
NORTHERN INDIANA

CITY           SKY/WX    TMP DP  RH WIND       PRES   REMARKS
GARY*          MOSUNNY   36  21  55 SW10      30.27F
VALPARAISO     SUNNY     36  25  64 SW13      30.27F
MICHIGAN CITY* SUNNY     36  25  64 SW10      30.27F
LAPORTE*       SUNNY     35  27  72 SW12      30.27F WCI  27
SOUTH BEND     SUNNY     32  23  69 SW14      30.28F WCI  22
ELKHART*       SUNNY     32  23  69 MISG      30.27F
GOSHEN         MOSUNNY   32  24  72 SW14      30.27F WCI  22
MONTICELLO*    SUNNY     33  23  66 S9        30.30F WCI  26
LOGANSPORT*    SUNNY     34  23  64 SW8       30.31F WCI  27
ROCHESTER*     SUNNY     36  21  55 SW9       30.30F
WARSAW*        SUNNY     32  25  74 SW10G16   30.29F WCI  24
ANGOLA*        MOSUNNY   32  25  74 SW13      30.26F WCI  22
FORT WAYNE     PTSUNNY   31  24  75 SW13      30.31S WCI  21
HUNTINGTON*    MOSUNNY   33  21  61 W8        30.30F WCI  26
PERU/GRISSOM   SUNNY     34  24  67 W10       30.28F WCI  26
MARION*        SUNNY     32  18  55 W6        30.32F WCI  26

$$
INZ028>050-061800-
CENTRAL INDIANA

CITY           SKY/WX    TMP DP  RH WIND       PRES   REMARKS
LAFAYETTE      SUNNY     35  24  64 SW8       30.31F WCI  29
KOKOMO*          N/A     36 N/A N/A W8        30.30F
MUNCIE*        SUNNY     35  22  58 W8        30.31F WCI  29
INDIANAPOLIS   MOSUNNY   34  24  67 VRB7      30.32F WCI  28

$$
MIZ043>046-050>051-056>058-064>065-071>073-077>080-061800-
SOUTHWEST LOWER MICHIGAN

CITY           SKY/WX    TMP DP  RH WIND       PRES   REMARKS
BATTLE CREEK   SUNNY     32  22  66 SW10      30.23F WCI  24
BENTON HARBOR  SUNNY     34  25  69 SW14      30.26F WCI  25
COLDWATER*     SUNNY     32  24  73 SW13      30.25F WCI  22
HILLSDALE*     SUNNY     31  23  71 SW10      30.23F WCI  23
HOLLAND        PTSUNNY   33  25  72 SW20G25   30.23F WCI  21
GRAND RAPIDS   PTSUNNY   33  26  75 SW17      30.21F WCI  22
KALAMAZOO      SUNNY     32  22  66 SW15      30.24F WCI  22
STURGIS*       MOSUNNY   31  24  75 SW15      30.25F WCI  20
THREE RIVERS*  FAIR      32  26  77 SW10      30.26F WCI  24

$$
OHZ001>008-015>018-024>025-061800-
NORTHWEST OHIO

CITY           SKY/WX    TMP DP  RH WIND       PRES   REMARKS
DEFIANCE       CLOUDY    34  25  69 SW9       30.30F WCI  27
FINDLAY        CLOUDY    31  25  78 S10       30.29F HAZE    WCI  22
TOLEDO EXPRESS MOSUNNY   34  23  64 SW13G21   30.28F WCI  25
TOLEDO METCALF MOSUNNY   34  23  64 SW15      30.30F WCI  24
LIMA           CLOUDY    29  25  85 SW9       30.30F FOG     WCI  20

$$
AND FOR LAKE MICHIGAN COASTAL AND OPEN LAKE BUOY OBSERVATIONS

STATION/POSITION TEMP    WIND        PRES    VSBY  WAVE
                 AIR SEA DIR/SP/G                  HT/PER
                 (F)     (DEG/KT/KT) (MB)    (MI)  (FT/S)
CALUMET HARBOR    32     200/ 11/ 14 1024.3F
MICHIGAN CITY     31     180/ 10/ 12   N/A
BURNS HARBOR      32     220/ 12/ 16 1026.1F
SAINT JOSEPH      32     190/ 14/ 17 1024.7F

$$
&&



USA.gov is the U.S. government's official web portal to all federal, state and local government web resources and services.